TimeEDT,TemperatureF,Dew PointF,Humidity,Sea Level PressureIn,VisibilityMPH,Wind Direction,Wind SpeedMPH,Gust SpeedMPH,PrecipitationIn,Events,Conditions,WindDirDegrees,DateUTC
12:15 AM,57.7,52.9,84,30.17,10.0,Calm,Calm,-,N/A,,Clear,0,2013-09-18 04:15:00
12:35 AM,57.4,52.7,84,30.17,10.0,Calm,Calm,-,N/A,,Clear,0,2013-09-18 04:35:00
12:55 AM,57.6,53.1,85,30.16,10.0,Calm,Calm,-,N/A,,Clear,0,2013-09-18 04:55:00
1:15 AM,57.7,53.1,84,30.15,10.0,Calm,Calm,-,N/A,,Clear,0,2013-09-18 05:15:00
1:35 AM,58.1,52.2,81,30.15,10.0,Calm,Calm,-,N/A,,Clear,0,2013-09-18 05:35:00
1:55 AM,57.6,52.7,84,30.15,10.0,Calm,Calm,-,N/A,,Clear,0,2013-09-18 05:55:00
2:15 AM,58.6,52.9,81,30.15,10.0,Calm,Calm,-,N/A,,Clear,0,2013-09-18 06:15:00
2:35 AM,59.0,53.4,82,30.15,10.0,Calm,Calm,-,N/A,,Scattered Clouds,0,2013-09-18 06:35:00
2:55 AM,60.3,52.3,75,30.15,10.0,Calm,Calm,-,N/A,,Scattered Clouds,0,2013-09-18 06:55:00
3:15 AM,59.0,53.6,82,30.15,10.0,Calm,Calm,-,N/A,,Mostly Cloudy,0,2013-09-18 07:15:00
3:35 AM,58.3,53.6,84,30.15,10.0,Calm,Calm,-,N/A,,Scattered Clouds,0,2013-09-18 07:35:00
3:55 AM,58.6,53.6,83,30.14,10.0,Calm,Calm,-,N/A,,Scattered Clouds,0,2013-09-18 07:55:00
4:15 AM,59.2,53.6,82,30.14,10.0,Calm,Calm,-,N/A,,Mostly Cloudy,0,2013-09-18 08:15:00
4:35 AM,59.2,53.4,81,30.14,10.0,Calm,Calm,-,N/A,,Mostly Cloudy,0,2013-09-18 08:35:00
4:55 AM,59.5,53.1,79,30.14,10.0,Calm,Calm,-,N/A,,Mostly Cloudy,0,2013-09-18 08:55:00
5:15 AM,59.9,53.1,78,30.14,10.0,Calm,Calm,-,N/A,,Overcast,0,2013-09-18 09:15:00
5:35 AM,59.9,53.6,80,30.14,10.0,Calm,Calm,-,N/A,,Overcast,0,2013-09-18 09:35:00
5:55 AM,60.3,53.1,77,30.14,10.0,Calm,Calm,-,N/A,,Overcast,0,2013-09-18 09:55:00
6:15 AM,60.1,53.2,78,30.14,10.0,Calm,Calm,-,N/A,,Overcast,0,2013-09-18 10:15:00
6:35 AM,60.3,53.2,78,30.14,10.0,Calm,Calm,-,N/A,,Overcast,0,2013-09-18 10:35:00
6:55 AM,59.9,53.6,80,30.14,10.0,Calm,Calm,-,N/A,,Overcast,0,2013-09-18 10:55:00
7:15 AM,59.0,53.8,83,30.15,10.0,Calm,Calm,-,N/A,,Mostly Cloudy,0,2013-09-18 11:15:00
7:35 AM,59.4,53.6,81,30.15,10.0,Calm,Calm,-,N/A,,Mostly Cloudy,0,2013-09-18 11:35:00
7:55 AM,59.5,53.8,81,30.15,10.0,Calm,Calm,-,N/A,,Overcast,0,2013-09-18 11:55:00
8:15 AM,60.3,54.3,81,30.15,10.0,Calm,Calm,-,N/A,,Overcast,0,2013-09-18 12:15:00
8:35 AM,61.2,54.5,79,30.15,10.0,Calm,Calm,-,N/A,,Overcast,0,2013-09-18 12:35:00
8:55 AM,62.1,54.1,75,30.15,10.0,Calm,Calm,-,N/A,,Overcast,0,2013-09-18 12:55:00
9:15 AM,63.1,54.1,72,30.15,10.0,Calm,Calm,-,N/A,,Overcast,0,2013-09-18 13:15:00
9:35 AM,64.2,54.5,71,30.16,10.0,Calm,Calm,-,N/A,,Mostly Cloudy,0,2013-09-18 13:35:00
9:55 AM,66.9,54.5,64,30.15,10.0,South,3.5,-,N/A,,Scattered Clouds,180,2013-09-18 13:55:00
10:15 AM,69.8,53.8,57,30.16,10.0,SSW,3.5,-,N/A,,Scattered Clouds,200,2013-09-18 14:15:00
10:35 AM,70.7,54.0,55,30.16,10.0,SSW,3.5,-,N/A,,Overcast,200,2013-09-18 14:35:00
10:55 AM,71.6,53.8,53,30.16,10.0,SSW,6.9,-,N/A,,Mostly Cloudy,210,2013-09-18 14:55:00
11:15 AM,73.8,54.3,51,30.15,10.0,SW,4.6,-,N/A,,Mostly Cloudy,220,2013-09-18 15:15:00
11:35 AM,73.8,54.5,51,30.15,10.0,WSW,8.1,-,N/A,,Overcast,240,2013-09-18 15:35:00
11:55 AM,74.3,55.0,51,30.14,10.0,SW,4.6,-,N/A,,Overcast,220,2013-09-18 15:55:00
12:15 PM,75.4,55.0,49,30.14,10.0,South,3.5,-,N/A,,Scattered Clouds,180,2013-09-18 16:15:00
12:35 PM,77.5,55.4,46,30.13,10.0,SSW,5.8,-,N/A,,Mostly Cloudy,210,2013-09-18 16:35:00
12:55 PM,78.8,55.8,45,30.12,10.0,South,5.8,-,N/A,,Mostly Cloudy,180,2013-09-18 16:55:00
1:15 PM,78.8,55.8,45,30.12,10.0,SW,5.8,-,N/A,,Mostly Cloudy,220,2013-09-18 17:15:00
1:35 PM,79.9,56.1,44,30.11,10.0,South,6.9,-,N/A,,Mostly Cloudy,190,2013-09-18 17:35:00
1:55 PM,79.9,56.5,45,30.11,10.0,South,6.9,-,N/A,,Overcast,190,2013-09-18 17:55:00
2:15 PM,79.9,56.8,45,30.10,10.0,SW,5.8,-,N/A,,Overcast,220,2013-09-18 18:15:00
2:35 PM,79.7,57.0,46,30.09,10.0,West,3.5,-,N/A,,Overcast,260,2013-09-18 18:35:00
2:55 PM,79.7,57.2,46,30.08,10.0,Calm,Calm,-,N/A,,Mostly Cloudy,0,2013-09-18 18:55:00
3:15 PM,80.8,57.6,45,30.08,10.0,SSW,4.6,-,N/A,,Scattered Clouds,200,2013-09-18 19:15:00
3:35 PM,81.3,57.9,45,30.07,10.0,SW,5.8,-,N/A,,Mostly Cloudy,220,2013-09-18 19:35:00
3:55 PM,80.1,58.5,48,30.06,10.0,South,4.6,-,N/A,,Overcast,190,2013-09-18 19:55:00
4:15 PM,82.2,58.6,45,30.06,10.0,SW,5.8,-,N/A,,Overcast,220,2013-09-18 20:15:00
4:35 PM,82.2,59.4,46,30.05,10.0,South,8.1,-,N/A,,Scattered Clouds,190,2013-09-18 20:35:00
4:55 PM,81.9,59.0,46,30.05,10.0,South,5.8,-,N/A,,Scattered Clouds,180,2013-09-18 20:55:00
5:15 PM,82.0,59.2,46,30.05,10.0,SW,5.8,-,N/A,,Scattered Clouds,230,2013-09-18 21:15:00
5:35 PM,81.0,59.2,47,30.05,10.0,SW,4.6,-,N/A,,Mostly Cloudy,230,2013-09-18 21:35:00
5:55 PM,80.2,59.7,49,30.05,10.0,South,5.8,-,N/A,,Mostly Cloudy,180,2013-09-18 21:55:00
6:15 PM,79.7,59.9,51,30.05,10.0,SSE,4.6,-,N/A,,Mostly Cloudy,160,2013-09-18 22:15:00
6:35 PM,79.9,60.6,52,30.05,10.0,SSW,8.1,-,N/A,,Mostly Cloudy,210,2013-09-18 22:35:00
6:55 PM,79.9,60.1,51,30.04,10.0,SSW,6.9,-,N/A,,Mostly Cloudy,200,2013-09-18 22:55:00
7:15 PM,78.8,60.3,53,30.04,10.0,South,4.6,-,N/A,,Scattered Clouds,180,2013-09-18 23:15:00
7:35 PM,77.9,61.0,56,30.04,10.0,South,5.8,-,N/A,,Mostly Cloudy,190,2013-09-18 23:35:00
7:55 PM,75.9,61.2,60,30.05,10.0,SSW,5.8,-,N/A,,Scattered Clouds,200,2013-09-18 23:55:00
8:15 PM,74.5,61.7,64,30.05,10.0,SSW,4.6,-,N/A,,Clear,200,2013-09-19 00:15:00
8:35 PM,72.9,61.7,68,30.06,10.0,SSW,4.6,-,N/A,,Clear,200,2013-09-19 00:35:00
8:55 PM,72.5,62.1,70,30.06,10.0,South,4.6,-,N/A,,Clear,190,2013-09-19 00:55:00
9:15 PM,72.5,62.8,71,30.06,10.0,SSW,6.9,-,N/A,,Clear,200,2013-09-19 01:15:00
9:35 PM,72.0,63.3,74,30.06,10.0,South,6.9,-,N/A,,Clear,190,2013-09-19 01:35:00
9:55 PM,71.6,63.5,76,30.07,10.0,South,5.8,-,N/A,,Clear,190,2013-09-19 01:55:00
10:15 PM,70.7,63.5,78,30.07,10.0,South,4.6,-,N/A,,Clear,180,2013-09-19 02:15:00
10:35 PM,70.3,63.5,79,30.07,10.0,South,6.9,-,N/A,,Clear,190,2013-09-19 02:35:00
10:55 PM,70.2,63.1,78,30.07,10.0,South,4.6,-,N/A,,Clear,190,2013-09-19 02:55:00
11:15 PM,70.0,63.0,78,30.06,10.0,South,5.8,-,N/A,,Clear,190,2013-09-19 03:15:00
11:35 PM,70.0,63.1,79,30.07,10.0,South,4.6,-,N/A,,Clear,190,2013-09-19 03:35:00
11:55 PM,70.2,63.5,79,30.07,10.0,South,4.6,-,N/A,,Clear,180,2013-09-19 03:55:00